Weather in Pylos

Greece     36°54′32″N   21°41′56″E
В апреле 2022 года жителям России запретили посещать сайт meteo.paraplan.net по решению Генеральной прокуратуры. Аудитория сайта уменьшилась в 10 раз. Владельцы сайта не видят смысла в поддержке погодного сервера в таких условиях. Сайт будет закрыт в октябре.
temp.,
°C
wind,
m/s
gust,
m/s
humid.,
%
clouds,
%
prec.,
mm/h
press.,
hPa
HPBL,
m
3 october, mon
mon300:00+18nnw47810 0.0 1016254
03:00+18n34810 0.0 1016118
06:00+18n11680 0.0 101447
09:00+21nnw12585 0.0 1014142
12:00+25w32450 0.0 1014971
15:00+25wnw55501 0.0 1013906
18:00+22wnw56615 0.0 1012698
21:00+20nw487285 0.0 1012411
4 october, tue
tue400:00+19nnw487469 0.0 1012317
03:00+18n348550 0.0 1012141
06:00+17e227011 0.0 101247
09:00+21ese12607 0.0 1014194
12:00+23wsw326118 0.4 1016961
15:00+23wsw555927 0.8 10161112
18:00+22w566815 0.3 1017948
21:00+19w348220 0.8 1019284
5 october, wed
wed500:00+18wnw23866 0.6 1020160
03:00+17wnw12891 1.6 102067
06:00+17e01880 0.6 102054
09:00+19se12764 1.3 1022213
12:00+22sw226331 1.5 1023872
15:00+22w546424 4.2 1022985
18:00+20wnw56659 1.7 1022875
21:00+18nw23780 2.8 1024194
6 october, thu
thu600:00+17n228021 0.6 102568
03:00+16nne117410 0.9 102549
06:00+15ene22640 0.1 102443
09:00+17ene124860 0.1 1024100
12:00+22w123013 0.0 10241162
15:00+22w443517 0.0 10221072
18:00+21nw4537100 0.0 1022714
21:00+18n3448100 0.0 1023108
7 october, fri
fri700:00+17ne1149100 0.0 102334
03:00+16ne114721 0.0 102227
06:00+16ne21415 0.0 102128
09:00+19ene11330 0.0 102176
12:00+24n25250 0.0 10211384
15:00+24w34310 0.0 10201380
18:00+22wnw23361 0.0 1020628
21:00+18nne22445 0.0 102155